KC1NKL-13 Weather Reports


time (UTC)temp
C
wind
direction
speed
KPH
gust
KPH
rain 1hr
cm
rain 24hr
cm
rain mn
cm
humidity
%
barometer
mb
20260507115516 8 293 1.6 4.8 0.00 1.50 0.38 88 1006.0
20260507114516 8 293 1.6 8.0 0.00 1.50 0.38 90 1006.2
20260507113516 8 293 1.6 3.2 0.00 1.50 0.38 92 1006.2
20260507112516 8 315 1.6 1.6 0.00 1.50 0.38 91 1006.6
20260507111516 8 315 1.6 3.2 0.00 1.50 0.38 92 1006.1
20260507110516 8 0.0 3.2 0.00 1.50 0.38 93 1006.8
20260507105516 7 270 3.2 6.4 0.00 1.50 0.38 93 1006.4
20260507104521 7 248 3.2 4.8 0.00 1.50 0.38 93 1006.8
20260507103516 7 270 1.6 3.2 0.00 1.50 0.38 94 1006.2
20260507102516 7 270 1.6 4.8 0.00 1.50 0.38 94 1006.2
20260507101516 7 270 3.2 4.8 0.00 1.50 0.38 95 1006.4
20260507100516 7 270 1.6 4.8 0.00 1.50 0.38 95 1005.7
20260507095536 7 270 3.2 6.4 0.00 1.50 0.38 95 1006.1
20260507094519 7 270 1.6 4.8 0.00 1.50 0.38 95 1005.4
20260507093536 8 293 1.6 4.8 0.00 1.50 0.38 95 1005.4
20260507092516 8 248 3.2 6.4 0.00 1.50 0.38 96 1005.8
20260507091516 8 270 3.2 8.0 0.00 1.50 0.38 96 1005.9
20260507090516 8 270 1.6 4.8 0.00 1.50 0.38 96 1005.8
20260507085516 8 338 1.6 3.2 0.00 1.50 0.38 96 1005.7
20260507084515 8 338 1.6 3.2 0.00 1.50 0.38 96 1005.5
20260507083536 8 0.0 3.2 0.00 1.50 0.38 96 1005.9
20260507082516 8 315 1.6 4.8 0.00 1.50 0.38 96 1005.3
20260507081515 8 315 3.2 6.4 0.00 1.50 0.38 96 1005.2
20260507080516 8 338 1.6 4.8 0.00 1.50 0.38 96 1005.4
20260507075536 8 270 1.6 4.8 0.00 1.50 0.38 96 1005.3
20260507074518 8 338 3.2 8.0 0.00 1.50 0.38 96 1005.1
20260507073517 8 338 3.2 6.4 0.00 1.50 0.38 96 1005.3
20260507072517 8 315 4.8 11.3 0.00 1.50 0.38 96 1005.0
20260507071517 9 338 4.8 11.3 0.00 1.50 0.38 96 1004.9
20260507070517 10 338 1.6 6.4 0.00 1.50 0.38 97 1004.9
20260507065517 10 0.0 1.6 0.03 1.50 0.38 97 1004.7
20260507064517 10 338 1.6 4.8 0.03 1.50 0.38 97 1004.3
20260507063518 10 315 1.6 4.8 0.05 1.50 0.38 97 1004.4
20260507062517 10 0.0 3.2 0.05 1.50 0.38 97 1004.7
20260507061517 10 338 1.6 6.4 0.08 1.50 0.38 97 1004.6
20260507060517 10 293 1.6 4.8 0.10 1.50 0.38 97 1004.3
20260507055537 10 338 1.6 6.4 0.10 1.47 0.36 97 1004.2
20260507054517 10 315 3.2 6.4 0.20 1.47 0.36 97 1004.3
20260507053517 10 270 3.2 8.0 0.28 1.45 0.33 97 1004.2
20260507052517 10 248 3.2 8.0 0.28 1.45 0.33 97 1004.3
20260507051517 10 315 3.2 9.7 0.28 1.42 0.30 97 1004.2
20260507050517 10 315 1.6 4.8 0.28 1.40 0.28 97 1004.6
20260507045517 10 248 4.8 9.7 0.28 1.37 0.25 97 1004.9
20260507044537 11 248 4.8 14.5 0.18 1.27 0.15 97 1004.8
20260507043517 11 248 3.2 6.4 0.08 1.17 0.05 97 1004.3
20260507042517 11 293 3.2 9.7 0.08 1.17 0.05 97 1004.0
20260507041517 11 248 3.2 6.4 0.08 1.14 0.03 97 1004.2
20260507040517 11 248 4.8 14.5 0.05 1.12 0.00 97 1004.2
20260507035516 11 225 4.8 12.9 0.05 1.09 1.09 97 1003.8
20260507034517 11 203 4.8 12.9 0.05 1.09 1.09 97 1003.6
20260507033537 11 180 3.2 4.8 0.05 1.09 1.09 97 1003.6
20260507032517 11 180 3.2 8.0 0.05 1.09 1.09 97 1003.6
20260507031516 11 158 3.2 8.0 0.03 1.07 1.07 97 1003.6
20260507030516 11 158 3.2 6.4 0.05 1.07 1.07 97 1003.7
20260507025516 11 180 3.2 6.4 0.03 1.04 1.04 97 1003.9
20260507024516 11 180 4.8 9.7 0.03 1.04 1.04 97 1004.0
20260507023516 10 158 4.8 8.0 0.05 1.04 1.04 97 1004.1
20260507022516 10 158 4.8 9.7 0.05 1.04 1.04 96 1004.2
20260507021517 10 180 4.8 9.7 0.05 1.04 1.04 96 1004.4
20260507020516 10 158 6.4 11.3 0.05 1.02 1.02 96 1004.5
20260507015516 10 135 6.4 11.3 0.08 1.02 1.02 96 1004.7
20260507014516 11 158 6.4 12.9 0.10 1.02 1.02 96 1004.8
20260507013558 11 180 8.0 14.5 0.08 0.99 0.99 96 1004.9
20260507012516 11 180 8.0 14.5 0.08 0.99 0.99 96 1004.9
20260507011516 11 180 4.8 11.3 0.08 0.99 0.99 96 1004.9
20260507010519 11 180 6.4 17.7 0.05 0.97 0.97 96 1005.0
20260507005516 11 180 6.4 19.3 0.03 0.94 0.94 96 1005.4
20260507004536 11 180 6.4 12.9 0.00 0.91 0.91 96 1005.3
20260507003516 11 158 6.4 11.3 0.00 0.91 0.91 96 1005.5
20260507002516 12 158 4.8 11.3 0.00 0.91 0.91 96 1005.3
20260507001516 12 158 4.8 8.0 0.00 0.91 0.91 96 1005.3
20260507000516 12 158 6.4 11.3 0.00 0.91 0.91 96 1005.3
20260506235516 12 180 6.4 16.1 0.03 0.91 0.91 96 1005.5
20260506234516 12 180 8.0 14.5 0.03 0.91 0.91 95 1005.6
20260506233516 12 203 8.0 19.3 0.05 0.91 0.91 96 1005.7
20260506232516 12 180 8.0 20.9 0.05 0.91 0.91 96 1005.6
20260506231536 12 180 8.0 17.7 0.08 0.91 0.91 95 1005.7
20260506230516 12 203 8.0 19.3 0.13 0.91 0.91 95 1005.8
20260506225516 12 180 9.7 19.3 0.18 0.89 0.89 95 1005.9
20260506224516 12 180 8.0 16.1 0.25 0.89 0.89 95 1006.0
20260506223535 12 180 8.0 24.1 0.33 0.86 0.86 95 1006.0
20260506222516 12 203 8.0 16.1 0.41 0.86 0.86 95 1006.0
20260506221517 12 180 8.0 24.1 0.43 0.84 0.84 95 1006.2
20260506220516 11 158 11.3 22.5 0.43 0.79 0.79 95 1006.0
20260506215516 12 158 12.9 24.1 0.38 0.71 0.71 95 1005.8
20260506214536 12 158 9.7 20.9 0.33 0.64 0.64 95 1005.8
20260506213515 12 180 8.0 17.7 0.28 0.53 0.53 95 1006.1
20260506212516 12 180 11.3 25.7 0.23 0.46 0.46 95 1006.6
20260506211516 12 180 6.4 17.7 0.30 0.41 0.41 95 1006.9
20260506210557 12 180 4.8 9.7 0.28 0.36 0.36 95 1006.9
20260506205515 12 158 6.4 11.3 0.28 0.33 0.33 94 1006.6
20260506204517 12 158 4.8 11.3 0.28 0.30 0.30 94 1006.9
20260506203517 12 180 4.8 9.7 0.23 0.25 0.25 94 1007.1
20260506202537 12 180 4.8 9.7 0.23 0.23 0.23 94 1007.2
20260506201538 12 158 3.2 6.4 0.10 0.10 0.10 93 1007.3
20260506200517 12 158 3.2 6.4 0.08 0.08 0.08 93 1007.1
20260506195537 12 158 4.8 8.0 0.05 0.05 0.05 92 1007.2
20260506194517 12 158 4.8 9.7 0.03 0.03 0.03 91 1007.4
20260506193537 12 158 6.4 14.5 0.03 0.03 0.03 90 1007.1
20260506192517 12 180 6.4 16.1 0.00 0.00 0.00 88 1007.1
20260506191517 13 180 9.7 20.9 0.00 0.00 0.00 86 1007.3
20260506190517 13 180 11.3 22.5 0.00 0.00 0.00 84 1007.3
20260506185517 13 158 9.7 20.9 0.00 0.00 0.00 84 1007.3
20260506184517 13 180 9.7 24.1 0.00 0.00 0.00 83 1007.4
20260506183537 14 180 8.0 19.3 0.00 0.00 0.00 82 1007.1
20260506182517 14 180 8.0 16.1 0.00 0.00 0.00 82 1007.4
20260506181517 14 158 8.0 14.5 0.00 0.00 0.00 81 1007.5
20260506180517 14 135 6.4 14.5 0.00 0.00 0.00 81 1007.5
20260506175517 14 158 6.4 11.3 0.00 0.00 0.00 81 1007.6
20260506174517 15 135 6.4 11.3 0.00 0.00 0.00 81 1007.7
20260506173517 15 135 6.4 11.3 0.00 0.00 0.00 81 1007.9
20260506172537 15 135 6.4 14.5 0.00 0.00 0.00 81 1008.0
20260506171517 15 135 4.8 11.3 0.00 0.00 0.00 80 1008.1
20260506170517 15 180 4.8 11.3 0.00 0.00 0.00 81 1008.3
20260506165517 15 135 6.4 16.1 0.00 0.00 0.00 81 1008.5
20260506164537 15 158 6.4 14.5 0.00 0.00 0.00 80 1008.7
20260506163517 15 135 4.8 9.7 0.00 0.00 0.00 79 1008.8
20260506162517 16 158 4.8 6.4 0.00 0.00 0.00 79 1009.0
20260506161537 16 180 4.8 11.3 0.00 0.00 0.00 79 1009.2
20260506160517 15 180 4.8 9.7 0.00 0.00 0.00 81 1009.0
20260506155517 15 180 6.4 14.5 0.00 0.00 0.00 80 1009.4
20260506154517 15 180 6.4 14.5 0.00 0.00 0.00 81 1009.5
20260506153516 15 158 8.0 14.5 0.00 0.00 0.00 80 1009.5
20260506152519 15 158 8.0 14.5 0.00 0.00 0.00 80 1009.4
20260506151516 16 203 6.4 14.5 0.00 0.00 0.00 80 1009.2
20260506150516 15 158 8.0 16.1 0.00 0.00 0.00 80 1008.9
20260506145536 15 135 6.4 19.3 0.00 0.00 0.00 80 1008.7
20260506144517 16 158 8.0 16.1 0.00 0.00 0.00 79 1008.9
20260506143516 15 158 6.4 12.9 0.00 0.00 0.00 80 1009.2
20260506142556 15 158 4.8 9.7 0.00 0.00 0.00 80 1009.5
20260506141516 15 158 6.4 12.9 0.00 0.00 0.00 81 1009.7
20260506140516 15 135 4.8 9.7 0.00 0.00 0.00 82 1009.6
20260506135516 14 180 3.2 8.0 0.00 0.00 0.00 83 1009.7
20260506134516 15 180 6.4 11.3 0.00 0.00 0.00 82 1009.7
20260506133516 15 135 4.8 11.3 0.00 0.00 0.00 82 1009.4
20260506132516 15 180 4.8 8.0 0.00 0.00 0.00 81 1009.3
20260506131516 15 158 4.8 14.5 0.00 0.00 0.00 81 1009.2
20260506130516 15 203 4.8 8.0 0.00 0.00 0.00 82 1009.2
20260506125516 14 135 4.8 11.3 0.00 0.00 0.00 82 1009.4
20260506124516 14 158 3.2 8.0 0.00 0.00 0.00 83 1009.6
20260506123516 13 135 3.2 6.4 0.00 0.00 0.00 84 1009.6
20260506122536 13 135 3.2 4.8 0.00 0.00 0.00 84 1009.6
20260506121516 13 113 3.2 6.4 0.00 0.00 0.00 84 1009.5
20260506120516 13 113 3.2 6.4 0.00 0.00 0.00 85 1009.6